Simultaneous Nadir Overpasses (SNOs) Predictions

Prediction of SNOs between AQUA and METOP-A Satellite Orbit:

Table of predicted SNOs for the next 14.0 days since TLE Epoch: 7/4/2014
Index Date (AQUA) Time (AQUA) Lat,Lon (AQUA) SZA (AQUA ) Date (METOP-A) Time (METOP-A) Lat,Lon (METOP-A) SZA (METOP-A ) Distance(km) Time Diff (sec)
1 07/06/2014 11:11:40 -73.82,-173.59 128.80 07/06/2014 11:11:01 -73.80,-173.65 128.81 3.03 39
2 07/06/2014 12:01:09 73.89, -6.11 51.28 07/06/2014 12:01:39 73.89, -6.10 51.27 0.72 30
3 07/09/2014 06:45:55 -73.82,-107.15 128.49 07/09/2014 06:45:26 -73.83,-107.18 128.47 1.19 29
4 07/09/2014 07:35:24 73.90, 60.31 51.60 07/09/2014 07:36:04 73.91, 60.36 51.61 1.93 40
5 07/12/2014 01:30:30 73.09, 153.17 51.10 07/12/2014 01:29:25 73.04, 150.12 51.20 99.08 65
6 07/12/2014 02:20:10 -73.85, -40.77 128.09 07/12/2014 02:19:51 -73.85, -40.72 128.09 1.46 19
7 07/12/2014 03:09:38 73.93, 126.69 52.00 07/12/2014 03:10:28 73.93, 126.80 51.99 3.56 50
8 07/14/2014 21:04:51 73.52,-141.26 51.97 07/14/2014 21:03:41 73.46,-142.56 51.98 41.64 70
9 07/14/2014 21:54:23 -73.85, 25.67 127.68 07/14/2014 21:54:15 -73.87, 25.72 127.66 2.80 8
10 07/14/2014 22:43:52 73.93,-166.88 52.43 07/14/2014 22:44:53 73.94,-166.77 52.42 3.62 61
11 07/17/2014 16:39:09 73.76, -75.33 52.69 07/17/2014 16:38:00 73.76, -75.45 52.71 3.57 69
12 07/17/2014 17:28:37 -73.87, 92.06 127.19 07/17/2014 17:28:40 -73.88, 92.15 127.18 3.05 3




NCC Satellite Simultaneous Nadir Overpasses (SNOs) Prediction Service
